TimeEDT,TemperatureF,Dew PointF,Humidity,Sea Level PressureIn,VisibilityMPH,Wind Direction,Wind SpeedMPH,Gust SpeedMPH,PrecipitationIn,Events,Conditions,WindDirDegrees,DateUTC
12:53 AM,73.9,72.0,93,30.18,9.0,Calm,Calm,-,N/A,,Clear,0,2013-07-04 04:53:00
1:53 AM,73.9,72.0,93,30.18,9.0,Calm,Calm,-,N/A,,Clear,0,2013-07-04 05:53:00
2:53 AM,71.1,70.0,96,30.18,5.0,Calm,Calm,-,N/A,,Clear,0,2013-07-04 06:53:00
3:53 AM,72.0,71.1,97,30.18,8.0,Calm,Calm,-,N/A,,Clear,0,2013-07-04 07:53:00
4:49 AM,71.6,69.8,94,30.19,7.0,Calm,Calm,-,N/A,,Mostly Cloudy,0,2013-07-04 08:49:00
4:53 AM,71.1,70.0,96,30.18,7.0,Calm,Calm,-,N/A,,Mostly Cloudy,0,2013-07-04 08:53:00
5:53 AM,73.9,72.0,93,30.19,8.0,Calm,Calm,-,N/A,,Mostly Cloudy,0,2013-07-04 09:53:00
6:07 AM,73.4,71.6,94,30.20,8.0,Calm,Calm,-,N/A,,Scattered Clouds,0,2013-07-04 10:07:00
6:53 AM,75.9,73.0,91,30.20,7.0,Calm,Calm,-,N/A,,Mostly Cloudy,0,2013-07-04 10:53:00
7:53 AM,78.1,73.0,84,30.22,9.0,WSW,11.5,-,N/A,,Overcast,240,2013-07-04 11:53:00
8:53 AM,80.1,73.0,79,30.22,10.0,SW,8.1,-,N/A,,Overcast,230,2013-07-04 12:53:00
9:16 AM,80.6,71.6,74,30.23,10.0,Variable,3.5,-,N/A,,Mostly Cloudy,0,2013-07-04 13:16:00
9:53 AM,82.0,72.0,71,30.21,10.0,SW,6.9,-,N/A,,Mostly Cloudy,230,2013-07-04 13:53:00
10:06 AM,82.4,71.6,70,30.22,10.0,SW,6.9,-,N/A,,Partly Cloudy,220,2013-07-04 14:06:00
10:53 AM,84.0,72.0,67,30.21,10.0,Variable,3.5,-,N/A,,Mostly Cloudy,0,2013-07-04 14:53:00
11:53 AM,86.0,72.0,63,30.19,10.0,WSW,10.4,19.6,N/A,,Partly Cloudy,240,2013-07-04 15:53:00
12:53 PM,87.1,71.1,59,30.18,10.0,SSW,9.2,-,N/A,,Scattered Clouds,210,2013-07-04 16:53:00
1:53 PM,88.0,70.0,55,30.17,10.0,SSW,10.4,20.7,N/A,,Partly Cloudy,210,2013-07-04 17:53:00
2:53 PM,89.1,70.0,53,30.15,10.0,SW,9.2,19.6,N/A,,Clear,230,2013-07-04 18:53:00
3:53 PM,90.0,70.0,52,30.13,10.0,WSW,12.7,-,N/A,,Clear,240,2013-07-04 19:53:00
4:53 PM,90.0,71.1,54,30.12,10.0,SW,9.2,16.1,N/A,,Clear,220,2013-07-04 20:53:00
5:53 PM,89.1,71.1,55,30.11,10.0,SW,8.1,16.1,N/A,,Partly Cloudy,220,2013-07-04 21:53:00
6:53 PM,88.0,72.0,59,30.11,10.0,SW,8.1,-,N/A,,Clear,230,2013-07-04 22:53:00
7:53 PM,86.0,71.1,61,30.12,10.0,SSW,4.6,-,N/A,,Clear,210,2013-07-04 23:53:00
8:53 PM,84.0,72.0,67,30.13,10.0,SSW,3.5,-,N/A,,Clear,200,2013-07-05 00:53:00
9:53 PM,82.0,72.0,71,30.14,9.0,Calm,Calm,-,N/A,,Clear,0,2013-07-05 01:53:00
10:53 PM,81.0,72.0,74,30.15,10.0,Calm,Calm,-,N/A,,Clear,0,2013-07-05 02:53:00
11:53 PM,80.1,72.0,76,30.17,10.0,Calm,Calm,-,N/A,,Clear,0,2013-07-05 03:53:00